RH
100 102 102 100 99 102 91 77 91 104 100 98 93 85 78 80 87 93 100 103 101 100 99 97 94 90 85 79 74 72 73 77 82 82 81 77 70 68 73 77 77 77 82 87 77 62 56 57 60 63 65 63 61 57 52 51 56 61 60 59 58 58 59 59 60 60 59 56 57 62 68 77 86 91 95 98 102 102 98 95 96 95 95 98 99 99 101 102
98 99 101 102 98 101 102 85 81 97 102 100 99 98 92 83 78 79 84 91 95 99 100 101 99 99 99 97 95 94 95 96 97 96 97 97 91 83 74 68 70 73 74 72 66 59 53 49 49 52 55 54 52 52 50 48 51 54 52 50 48 48 47 47 48 49 52 57 64 75 85 93 97 99 101 101 102 100 98 99 100 99 100 102 103 104 105 104
94 99 100 103 102 98 103 98 84 86 98 101 100 100 100 98 92 87 82 78 77 84 91 95 98 100 101 101 101 101 100 101 102 101 98 92 86 80 71 64 63 65 61 53 48 45 41 39 40 44 47 46 45 47 49 48 49 48 47 49 50 52 52 51 51 52 56 64 75 88 96 99 100 101 102 102 101 98 98 102 103 103 105 105 105 104 103 101
78 97 99 100 104 101 99 102 97 89 92 99 101 100 100 100 100 99 96 92 88 85 86 88 90 91 93 93 93 90 88 89 89 87 84 79 77 76 71 65 62 59 56 52 50 48 46 47 49 51 55 56 55 55 55 55 57 58 60 65 68 71 74 76 77 78 79 83 90 97 99 103 106 104 102 101 103 102 102 105 106 105 104 104 104 104 102 100
53 80 97 101 102 104 101 100 101 99 96 97 100 102 101 100 100 100 100 100 100 99 97 95 94 93 92 91 88 84 81 78 73 71 73 78 85 90 88 86 85 83 82 82 83 82 80 80 79 80 82 85 90 90 86 82 82 86 88 91 93 94 96 96 97 97 98 99 100 102 102 104 106 104 103 104 106 106 103 103 103 103 103 103 105 105 102 100
37 54 79 97 102 103 103 102 100 100 100 99 99 101 102 103 101 100 100 100 100 101 101 100 100 100 99 99 98 96 95 92 88 86 87 92 96 99 99 98 100 99 99 100 100 99 100 100 101 101 101 102 106 105 100 97 98 100 98 97 98 97 98 98 99 99 101 102 102 103 103 103 104 104 104 103 104 103 101 102 102 102 103 103 105 105 103 102
35 38 52 76 96 104 104 102 102 102 101 100 100 99 101 104 103 102 101 100 100 100 100 100 100 100 100 100 100 100 100 100 100 99 99 100 100 100 101 100 99 100 100 100 100 100 100 102 103 102 99 97 97 98 100 103 106 107 105 101 99 98 98 98 99 101 101 103 103 104 105 105 105 105 102 101 101 101 101 102 101 102 104 106 106 106 105 105
39 37 38 50 72 94 105 104 103 104 102 101 100 100 101 101 101 103 103 102 101 100 101 102 101 100 100 100 101 101 101 100 100 100 100 101 101 101 102 102 101 100 100 100 102 101 100 100 100 98 96 96 96 98 101 102 103 107 107 104 102 101 100 101 102 104 104 104 105 105 104 103 103 102 101 101 101 102 103 101 101 103 106 107 107 105 105 105
41 40 38 38 47 69 92 102 104 103 103 103 101 101 100 100 100 101 101 103 103 102 102 103 102 101 101 100 101 101 101 101 101 101 102 102 100 100 100 101 101 100 100 100 100 101 101 101 101 101 101 100 100 100 100 100 100 101 102 101 101 101 102 102 102 104 103 102 103 103 102 100 102 102 101 103 103 104 105 103 103 106 107 107 106 104 104 103
42 41 40 39 38 47 66 88 103 106 103 102 103 103 101 101 101 100 100 101 101 102 102 102 101 101 102 101 100 101 101 101 101 101 102 102 102 102 102 102 102 102 102 104 103 102 102 102 104 104 104 103 103 102 100 101 101 100 100 101 101 101 101 101 101 102 101 101 101 101 102 102 103 104 103 104 106 105 106 105 105 106 107 105 104 103 103 101
43 42 42 42 40 40 46 63 87 103 107 105 103 101 101 102 102 101 101 101 100 101 101 100 100 100 101 99 98 98 97 97 97 97 98 98 99 100 100 100 99 99 100 103 104 104 104 103 103 103 104 104 105 106 105 104 103 103 102 102 102 102 102 102 102 103 102 103 103 102 104 105 105 105 104 104 106 105 105 105 104 104 104 103 102 102 102 103
43 43 43 43 43 43 43 46 59 78 97 108 109 104 102 102 101 101 101 102 101 101 101 100 100 101 101 100 100 99 96 95 95 96 97 97 98 97 96 95 94 94 93 94 96 98 101 103 103 103 103 102 103 103 104 105 105 106 105 105 105 104 104 105 105 105 105 106 106 105 106 108 106 103 103 103 104 104 104 104 103 103 102 102 102 103 104 105
42 42 43 45 46 47 47 47 48 54 67 85 98 105 107 105 104 105 104 104 104 104 104 103 102 102 102 102 100 99 98 98 97 97 98 99 99 99 99 97 96 95 93 93 94 95 97 99 102 105 105 105 107 104 103 105 106 106 106 105 104 103 102 103 104 105 105 105 105 106 108 109 107 102 102 103 102 103 103 102 102 102 102 104 104 105 105 106
43 43 44 46 48 50 52 52 51 51 52 57 66 76 85 91 96 100 101 101 102 102 101 101 101 99 99 99 97 96 97 96 94 93 93 93 93 93 94 94 93 92 91 89 89 89 90 91 92 95 96 99 102 99 99 102 102 101 101 99 98 97 96 97 98 98 101 102 103 107 109 110 109 104 102 103 103 103 103 102 101 101 102 104 103 103 103 103
45 48 50 51 53 56 57 56 54 52 51 49 48 51 56 62 67 72 76 80 82 84 84 85 86 85 84 83 83 84 84 82 81 80 80 80 79 79 79 79 79 79 78 77 75 74 74 73 73 72 73 75 76 76 77 78 79 80 81 82 83 85 87 90 92 92 96 98 101 106 107 109 111 108 105 105 104 104 103 102 101 101 101 101 101 101 101 103
50 53 57 59 61 61 59 57 55 52 49 49 50 49 49 48 48 49 50 52 54 56 58 60 61 62 61 61 62 63 63 62 61 61 61 60 60 59 59 58 57 55 54 52 50 48 46 44 43 42 41 41 41 42 43 44 47 50 53 57 62 67 71 76 78 79 83 87 92 97 99 104 108 108 107 105 104 104 102 100 100 101 101 101 101 102 102 103
54 58 62 64 64 64 62 59 57 56 57 57 56 53 50 49 47 45 43 42 42 41 42 43 43 43 42 42 43 43 43 42 42 41 40 39 38 38 37 36 35 33 32 31 30 29 27 26 24 23 22 21 21 22 23 25 27 30 35 41 48 54 60 66 67 67 71 76 80 83 88 96 102 106 109 105 103 102 100 100 101 100 100 101 101 101 99 99
56 61 65 67 67 67 65 66 67 69 68 66 63 60 58 56 53 50 48 46 45 44 44 43 42 41 40 38 37 36 36 35 34 33 32 31 30 29 29 28 28 28 26 26 27 27 25 23 20 18 17 17 17 17 19 22 24 27 31 37 43 50 57 61 62 63 65 68 70 72 76 87 97 104 109 105 103 103 101 101 101 100 101 101 99 99 100 104
61 66 69 70 71 72 75 77 78 77 73 71 68 66 62 58 56 54 53 52 52 52 52 50 49 47 45 42 39 38 36 35 35 34 33 32 31 31 30 30 31 32 32 30 30 31 31 27 22 19 19 17 16 18 20 23 27 30 33 37 43 48 54 56 55 57 60 61 65 68 71 81 91 100 107 107 106 107 104 101 102 102 101 101 102 105 107 107
63 68 72 75 78 80 81 80 78 77 76 74 71 67 65 62 61 60 59 57 57 57 56 55 52 51 48 44 41 38 36 34 34 34 33 33 34 34 34 35 35 36 39 38 36 37 39 37 30 25 24 22 20 23 27 31 33 36 37 40 43 48 54 55 52 54 55 58 64 68 69 73 81 92 102 106 106 109 107 105 105 105 106 107 105 107 107 103
64 70 75 79 79 79 78 80 83 85 82 77 72 69 66 65 63 61 59 58 57 57 56 55 53 51 49 45 40 37 35 33 32 32 32 33 34 36 36 37 38 40 43 46 45 44 46 46 39 33 30 27 26 28 32 38 44 47 48 49 51 51 53 56 56 56 57 62 69 73 75 78 84 94 102 104 105 107 108 108 106 104 107 107 103 102 103 101
65 70 74 76 76 79 85 89 90 87 81 76 71 67 64 62 59 58 57 57 57 56 56 55 53 51 48 44 39 36 34 33 32 31 30 31 33 35 37 38 40 42 45 51 54 53 53 55 52 46 40 35 34 35 38 45 52 58 60 63 68 68 68 72 75 78 81 86 91 94 95 96 99 103 103 102 104 106 104 105 103 102 103 103 101 101 103 105
67 71 75 78 84 90 94 93 88 81 76 71 66 63 60 57 56 57 59 59 57 55 53 52 50 46 42 37 33 29 27 26 25 24 24 26 29 32 35 38 41 44 47 53 60 61 60 62 65 67 65 59 56 57 61 65 69 72 73 78 84 86 87 93 95 98 101 101 102 104 103 102 102 103 103 102 104 104 100 100 102 102 101 104 106 104 105 108
75 79 83 89 95 96 92 85 78 71 66 62 59 56 55 55 57 58 58 57 55 53 51 48 45 40 34 28 22 18 15 14 14 14 15 17 20 24 30 35 39 43 47 52 61 66 67 69 74 80 84 84 80 78 81 85 90 91 91 94 98 99 100 102 103 104 104 102 102 104 102 101 102 102 102 101 102 102 102 104 107 106 103 105 110 106 104 103
83 87 90 92 90 84 77 71 66 62 60 59 58 57 58 60 60 58 56 56 56 54 50 46 42 35 26 19 14 11 9 9 9 9 9 11 13 16 21 27 34 40 44 51 61 69 73 77 82 87 92 95 94 92 91 93 99 103 104 107 108 108 108 107 107 106 104 102 102 103 100 97 99 102 104 106 108 106 107 108 107 108 107 105 105 102 98 97
84 85 84 79 74 71 70 68 68 70 71 68 65 64 64 63 61 59 60 61 59 54 47 43 39 29 19 14 11 9 9 8 8 9 9 10 11 12 16 21 29 37 43 50 59 69 76 81 85 90 95 100 103 103 103 103 105 105 105 109 110 108 108 108 107 104 103 102 101 103 100 93 94 100 103 107 109 107 107 108 105 104 104 101 98 96 94 94
73 73 74 74 79 84 84 83 84 85 82 74 67 65 63 63 64 66 68 66 60 52 45 40 35 24 14 10 10 10 10 9 9 9 10 10 11 12 15 18 24 33 40 49 57 66 75 81 86 92 98 103 107 109 110 109 109 107 105 108 107 105 104 104 103 102 101 102 101 102 99 91 90 97 103 106 107 104 102 102 99 97 97 96 95 94 93 94
71 76 83 88 93 98 97 95 93 88 79 69 65 64 65 68 73 74 73 68 60 53 46 39 31 20 12 9 10 10 10 10 10 11 11 12 13 14 16 18 22 29 37 46 55 63 71 79 86 94 101 106 108 107 106 104 105 104 101 103 103 102 103 102 101 102 101 101 102 102 101 99 98 100 103 101 98 96 94 94 95 94 94 93 93 94 95 97
83 89 97 99 100 102 99 94 88 78 71 66 65 67 71 77 81 79 74 68 61 53 45 37 26 16 11 9 9 9 10 11 11 12 12 13 15 16 18 20 22 28 35 44 53 61 69 77 84 92 100 106 108 108 105 103 103 103 101 102 102 101 102 102 102 103 103 105 105 104 103 102 99 97 99 96 92 93 93 93 94 92 92 92 92 92 89 83
94 99 105 105 102 99 94 87 79 72 69 68 69 74 81 85 83 78 72 66 60 53 43 31 19 13 12 11 10 10 10 12 13 14 14 15 16 18 20 23 26 30 36 44 51 59 67 73 78 86 93 100 107 110 107 105 104 103 102 103 103 103 103 105 106 104 104 104 102 101 100 98 96 96 99 97 94 95 95 94 93 90 87 83 76 70 62 55
94 95 97 96 94 91 88 83 77 73 70 70 74 82 86 85 80 75 69 62 56 47 34 22 14 11 12 12 13 12 12 13 14 16 18 18 19 19 21 24 27 32 36 42 48 55 62 67 70 76 82 89 94 99 101 103 106 105 105 104 104 105 102 101 102 100 99 98 96 97 98 96 96 98 99 99 99 97 93 86 77 69 63 56 53 51 51 54
87 83 81 85 88 88 86 82 77 74 72 76 83 87 86 82 75 69 64 57 49 36 22 14 10 10 11 13 14 14 15 16 17 19 22 23 24 25 26 27 29 32 37 40 44 48 53 59 63 66 70 73 77 82 85 89 92 93 93 92 91 90 88 89 93 93 95 97 96 99 100 99 100 99 95 91 83 74 65 57 51 50 51 54 57 59 60 62
88 83 81 85 87 86 85 82 77 76 78 83 87 86 81 77 69 63 57 48 35 21 13 10 9 10 11 13 14 15 17 19 21 23 25 27 29 30 32 34 36 38 41 44 47 50 51 53 57 60 62 63 66 71 75 76 79 82 84 85 86 85 81 82 86 88 90 92 91 91 87 82 80 74 67 61 54 50 47 48 51 56 58 59 58 56 55 54
92 89 89 89 89 89 88 82 78 80 85 86 85 81 76 70 64 57 45 31 19 12 10 10 10 12 13 14 15 16 18 20 23 26 28 32 35 38 41 44 46 49 50 53 57 61 63 61 61 65 67 68 73 77 79 81 84 87 89 89 88 85 75 68 66 65 64 63 62 61 57 53 52 51 52 53 53 51 50 51 53 54 53 52 51 52 52 52
99 95 94 94 95 94 88 81 79 83 84 82 79 75 71 65 56 42 27 16 11 10 10 10 11 13 15 17 17 17 19 21 23 27 30 34 38 42 47 50 54 58 61 65 69 75 84 84 77 77 78 77 80 81 79 78 77 78 80 76 70 64 56 49 45 43 41 41 43 46 48 49 51 51 54 54 52 50 49 50 51 50 50 51 52 53 53 54
106 100 99 99 98 94 85 80 80 81 80 77 74 70 64 55 39 23 14 11 11 11 12 13 14 16 18 20 21 21 23 24 26 30 33 37 41 44 48 52 56 60 62 68 72 75 86 90 77 71 71 67 65 64 60 57 55 53 53 50 45 43 42 41 40 41 43 43 45 48 49 50 50 49 49 48 47 48 51 52 52 53 54 55 55 56 57 58
106 103 103 100 96 89 81 78 78 78 77 74 70 64 52 36 20 13 12 12 13 14 16 17 18 18 19 21 23 24 26 28 30 33 35 37 39 40 43 45 47 50 51 53 56 55 62 70 61 50 48 46 44 43 41 40 41 40 40 41 41 43 45 45 45 45 46 45 45 47 48 49 49 50 49 49 50 53 54 55 55 56 56 56 56 57 57 58
103 99 94 89 84 80 76 77 78 77 75 71 64 51 33 18 12 13 15 16 17 18 19 19 18 19 20 20 22 23 24 26 27 29 30 31 32 33 35 36 37 39 39 38 39 38 38 45 44 36 34 36 36 39 41 42 44 44 44 45 45 46 45 45 45 45 45 45 45 48 50 52 53 54 52 51 53 53 53 53 53 54 54 56 58 59 61 62
92 86 83 80 77 76 76 78 77 75 72 64 48 29 16 14 16 19 20 20 20 19 19 19 19 20 21 21 23 24 24 26 26 27 28 28 29 28 28 28 28 28 29 28 29 30 31 36 40 39 38 41 43 45 47 47 47 46 45 45 45 46 46 47 48 49 49 49 48 48 50 52 52 50 48 49 50 50 52 54 56 59 62 64 66 67 67 66
81 83 83 79 76 77 78 78 76 73 64 46 26 16 16 20 21 21 21 19 19 19 20 21 22 23 24 24 25 25 25 25 25 24 24 23 22 22 22 23 25 27 30 32 34 36 38 42 46 46 44 43 44 45 46 47 47 47 47 48 48 49 49 50 51 52 50 49 48 45 45 50 50 48 49 52 54 57 60 63 65 67 68 68 68 68 67 66
80 88 86 79 77 79 79 77 73 62 43 24 16 19 23 23 21 20 20 20 21 22 23 23 24 23 23 23 22 21 20 20 19 19 20 22 23 26 29 32 35 37 39 41 41 41 42 44 46 47 46 45 46 47 48 49 49 49 49 49 49 48 48 48 48 49 49 50 52 49 49 56 58 56 59 62 63 65 68 69 70 70 70 69 68 67 66 63
87 92 85 78 79 79 77 73 60 39 22 17 21 25 23 21 20 21 22 23 23 23 22 22 21 19 19 18 18 18 19 20 23 25 28 30 32 35 38 39 41 43 43 44 45 44 45 46 47 48 48 47 47 47 48 48 48 47 47 46 46 46 47 50 51 53 56 59 59 57 56 60 61 63 66 66 67 70 70 71 71 70 69 67 64 60 54 47
93 91 82 79 79 78 72 58 36 20 18 23 26 23 21 21 22 23 23 23 22 21 19 18 18 18 19 20 22 24 26 27 29 32 34 37 38 40 43 44 46 47 47 48 48 47 45 45 45 46 46 44 44 46 47 48 49 50 50 50 51 53 55 58 59 59 60 62 62 60 60 62 63 65 66 67 69 71 70 69 68 67 63 57 49 41 33 28
93 86 80 80 79 73 57 34 20 20 25 26 23 21 22 23 23 23 22 20 19 18 18 19 20 22 24 26 28 30 33 35 37 39 42 45 47 47 48 47 47 46 45 44 43 41 40 39 40 41 44 46 50 53 55 57 59 58 57 56 56 58 59 61 61 61 61 62 62 62 62 64 65 66 67 69 71 71 69 66 62 56 48 38 31 26 23 21
87 80 80 81 74 56 34 20 21 27 26 23 22 23 24 24 23 21 19 19 19 19 21 23 25 27 30 32 35 38 42 46 47 48 49 49 48 45 44 42 41 40 40 40 40 41 42 43 44 45 46 47 51 54 54 57 60 60 58 57 57 59 61 61 61 62 62 62 63 65 66 69 71 71 70 70 69 66 62 55 47 39 31 25 23 22 21 20
80 81 82 74 54 31 21 23 27 26 23 23 25 25 24 22 20 19 19 20 21 23 26 29 32 35 39 42 44 46 47 48 47 46 44 42 41 40 40 41 42 43 44 45 47 49 50 51 51 51 49 48 50 51 51 53 57 59 60 60 60 61 62 63 63 64 65 66 69 72 74 76 76 73 70 66 61 55 47 39 32 26 23 22 21 21 21 20
82 83 74 52 30 21 24 27 25 23 24 26 25 23 22 20 19 20 21 23 26 30 34 39 43 46 47 48 47 46 45 43 42 43 43 43 44 46 47 48 49 49 49 50 50 51 52 52 53 54 52 51 53 55 56 57 59 60 62 64 65 66 66 68 70 71 72 74 76 77 76 74 72 68 63 56 47 38 30 25 23 22 22 22 22 22 22 22
84 73 50 29 22 25 28 26 24 25 27 25 23 21 20 20 21 24 27 31 37 42 45 47 50 49 47 47 47 49 51 53 52 52 52 52 52 52 51 50 50 50 50 50 50 51 52 53 54 57 56 55 57 59 60 61 62 63 66 68 70 71 72 75 78 79 78 77 76 72 69 66 61 54 46 37 29 24 22 22 23 23 23 23 22 22 22 22
70 47 28 23 26 28 25 25 26 27 25 22 21 21 22 24 27 31 37 42 46 49 50 49 48 48 49 51 55 58 60 62 61 59 57 54 52 51 50 49 49 50 50 51 52 52 53 54 56 59 61 60 61 63 63 65 69 70 71 73 74 76 77 80 81 79 76 73 68 63 58 52 43 34 27 23 22 22 22 23 23 23 22 22 21 21 21 21
44 27 25 27 27 26 25 27 27 25 22 22 22 24 28 32 37 42 47 48 48 48 48 48 50 54 58 60 61 60 59 58 57 54 52 51 49 49 49 49 49 50 52 53 54 54 54 56 57 60 63 63 64 67 69 71 74 74 74 76 77 77 78 78 77 73 68 63 57 49 41 33 26 22 22 22 23 23 22 21 21 21 20 21 21 21 21 21
27 26 28 27 26 27 28 27 24 22 22 24 28 32 37 41 46 49 49 48 47 48 50 53 57 60 62 61 59 57 54 52 50 48 48 48 48 48 49 50 51 53 54 54 54 54 55 57 58 60 64 67 70 74 76 76 76 75 74 75 75 75 75 73 69 62 55 47 38 30 25 21 20 21 22 22 22 20 20 20 20 21 21 22 22 22 22 21
27 29 27 26 28 29 27 24 23 24 27 32 37 42 45 48 49 49 48 48 50 53 58 61 63 62 61 59 55 53 51 49 48 47 47 48 49 50 52 53 54 55 56 56 56 56 57 59 60 63 69 73 75 76 76 75 73 72 71 72 72 71 68 62 54 45 35 27 22 20 19 20 20 20 20 20 20 20 20 21 21 22 22 22 21 20 19 17
Wind_Speed
53 52 48 43 41 41 40 38 39 39 35 32 34 37 39 40 40 39 39 39 40 41 40 40 41 42 42 42 42 43 43 44 45 46 47 48 48 48 48 48 49 48 48 49 51 51 51 51 52 53 54 55 56 56 57 57 57 56 56 56 57 59 60 61 62 62 63 63 63 64 64 65 65 66 67 68 70 73 75 76 77 78 79 79 80 81 82 84
55 54 51 47 44 42 41 40 39 41 40 37 34 34 36 39 41 41 41 41 42 44 44 44 45 45 45 44 44 45 46 47 48 49 50 51 52 53 52 52 52 52 52 53 54 55 55 54 54 55 55 56 56 56 57 56 56 57 57 58 59 60 61 62 63 63 64 64 65 65 66 67 68 69 71 72 74 76 76 77 78 80 81 82 84 85 85 86
55 55 53 51 48 44 42 41 41 42 43 43 41 38 37 37 39 41 41 42 43 44 46 47 48 49 49 49 49 49 50 51 52 54 55 56 56 56 56 55 56 56 56 56 56 56 55 54 53 54 54 54 54 55 55 56 57 58 60 61 62 63 64 65 66 66 66 67 67 68 69 70 71 72 74 75 76 77 78 80 82 83 84 85 86 86 87 87
53 55 55 53 51 49 45 42 42 43 44 46 46 44 42 40 39 40 41 41 42 43 44 46 48 50 51 51 52 53 53 54 55 56 57 57 57 56 56 56 56 56 56 55 55 54 54 53 53 53 53 54 55 56 57 58 60 62 63 64 65 65 65 66 66 67 68 68 69 70 71 72 73 74 75 77 79 80 81 83 84 85 85 86 87 87 88 89
48 53 55 55 53 52 49 46 44 43 44 46 48 48 47 46 44 43 43 43 43 43 44 45 46 47 49 50 51 52 53 53 54 54 55 55 54 53 53 53 52 52 53 53 53 53 54 54 55 55 56 57 59 61 63 64 65 66 67 66 66 66 66 66 67 67 68 69 70 71 73 74 76 78 80 81 83 83 83 84 84 85 85 86 87 88 89 90
42 48 53 55 54 53 52 50 47 45 44 46 48 49 50 50 50 49 49 48 48 47 47 47 47 48 49 49 50 50 51 51 52 53 54 54 54 54 54 55 55 56 56 57 57 58 58 59 60 61 62 63 65 67 68 68 69 69 69 69 69 68 68 68 69 70 71 72 74 76 78 79 81 82 83 83 83 83 82 83 84 85 86 87 88 88 89 90
36 43 48 52 53 53 53 53 51 49 46 46 46 48 50 52 53 54 54 54 53 53 53 53 53 53 53 53 54 54 54 54 55 56 56 57 58 58 59 60 60 61 62 62 63 63 64 64 65 66 67 68 69 70 71 71 71 71 71 70 70 69 70 71 72 74 77 78 80 81 82 82 82 82 82 81 81 82 82 84 85 86 87 87 88 88 89 90
32 37 42 48 51 52 52 54 54 52 50 49 47 47 49 51 53 55 56 57 57 57 57 57 58 58 58 58 58 59 59 60 60 60 61 61 61 62 62 63 64 65 66 67 67 67 67 67 68 68 69 69 69 69 70 70 70 71 71 71 72 73 75 77 79 80 81 82 82 82 82 81 81 81 82 82 82 83 85 85 86 87 87 88 88 88 89 90
31 33 37 42 47 50 51 52 54 54 53 52 51 50 50 51 52 54 56 58 59 60 60 60 61 61 61 61 62 62 63 63 64 64 65 65 66 66 66 66 67 68 69 70 71 71 71 71 71 71 71 71 71 71 72 72 73 74 75 76 78 79 80 81 81 82 82 82 82 82 82 82 82 83 83 84 85 86 86 87 87 87 88 88 89 89 90 90
30 32 34 37 42 46 49 51 52 53 53 53 53 53 52 52 53 54 55 56 58 59 60 61 62 63 63 64 64 64 65 66 67 67 68 69 69 70 70 70 70 71 72 72 73 74 74 74 75 75 75 75 76 76 77 78 79 79 80 81 82 82 82 83 82 82 82 82 82 83 84 84 85 86 86 86 87 87 87 87 87 88 89 89 89 89 89 89
29 31 33 35 38 41 46 49 50 51 52 52 53 53 54 55 55 56 56 57 57 58 59 60 61 62 63 65 66 66 68 68 69 70 70 71 72 73 73 74 74 75 75 75 76 76 77 78 79 79 78 79 80 80 80 81 81 82 82 83 84 84 84 84 84 84 84 84 85 85 86 87 88 88 88 88 88 87 87 87 88 88 89 88 88 88 87 87
28 30 32 34 35 38 41 44 47 50 51 52 53 53 54 55 57 57 58 58 58 59 60 61 62 63 64 65 66 68 69 69 70 71 72 72 73 74 75 76 77 78 78 79 79 80 80 81 82 82 83 84 84 85 84 85 85 85 85 85 86 86 86 87 87 87 87 87 88 88 87 88 90 90 89 89 88 87 87 87 87 87 87 87 86 86 85 85
27 30 31 33 34 35 37 40 43 46 48 50 52 54 55 56 57 57 58 59 60 61 62 63 64 65 66 67 68 70 71 71 72 73 73 74 75 76 77 78 79 80 80 81 81 82 83 83 84 84 85 86 86 87 87 88 88 89 89 89 90 91 90 91 91 91 91 91 90 90 88 88 90 90 89 89 87 86 85 85 85 85 85 85 84 84 84 85
26 28 30 32 33 34 35 37 39 42 44 47 50 53 54 55 56 57 59 60 61 63 64 65 66 67 68 70 71 72 74 75 76 76 77 78 79 79 80 81 82 83 84 84 85 85 86 87 88 88 89 89 90 90 91 91 91 92 92 93 93 93 93 94 94 94 93 92 91 90 87 87 89 90 89 88 86 85 85 85 84 84 84 84 83 83 84 85
25 27 28 30 31 32 34 35 37 39 41 43 45 48 49 52 54 56 58 60 62 63 65 67 68 69 71 72 74 75 77 78 79 80 81 82 83 84 85 86 87 87 88 89 90 90 91 92 92 93 93 94 95 95 95 95 94 95 95 94 94 94 94 95 95 94 93 91 89 88 86 86 87 88 87 86 85 85 85 84 84 83 84 84 84 85 86 87
24 26 27 28 29 31 32 33 34 36 37 37 39 41 43 46 48 51 53 55 58 60 63 64 66 68 70 71 73 75 76 77 79 81 82 83 84 84 85 86 86 86 86 86 87 87 87 87 87 88 88 89 90 91 91 91 92 94 93 92 92 92 92 93 93 93 91 88 87 86 85 85 86 86 84 84 84 84 84 84 83 84 85 86 86 87 88 89
23 24 26 26 28 28 30 30 31 31 32 33 34 36 38 39 41 43 46 48 50 53 55 57 60 62 63 66 68 69 70 72 74 75 76 77 78 78 79 78 79 79 78 77 78 78 78 78 77 78 78 79 80 80 81 82 85 87 87 87 87 88 88 89 90 89 88 86 85 85 85 84 85 85 83 82 83 83 84 84 85 86 87 88 89 90 91 92
21 22 23 24 25 26 27 27 27 27 28 29 30 31 33 34 36 38 40 42 44 46 48 50 53 55 57 60 61 63 64 66 68 69 70 71 71 72 72 72 71 72 71 71 70 71 71 71 71 71 71 71 72 73 74 75 77 79 80 81 81 82 82 84 85 85 84 83 83 84 83 83 84 84 82 82 83 84 86 86 87 88 89 90 91 92 93 94
19 21 21 22 23 23 23 23 24 25 25 26 27 28 30 31 33 34 36 38 40 42 45 47 50 52 55 57 59 60 62 63 64 66 67 67 68 68 68 68 67 66 67 66 65 65 65 65 65 65 64 64 64 66 67 69 70 72 74 74 75 75 76 78 80 79 80 80 80 81 81 81 83 84 83 83 84 86 87 88 89 90 91 92 94 95 96 97
18 19 20 20 20 20 20 21 21 22 23 24 25 27 29 30 32 34 36 37 39 42 44 47 49 52 54 56 58 59 61 61 62 64 64 65 65 64 65 64 63 62 62 63 62 61 61 61 61 60 59 59 58 59 60 62 64 65 67 68 69 70 71 73 75 75 77 77 77 78 79 80 82 83 84 84 85 86 88 89 91 92 94 95 96 97 98 99
16 16 17 17 17 17 17 17 18 20 22 24 26 27 29 31 32 34 36 37 39 42 44 47 50 52 55 57 58 59 60 60 60 61 62 61 61 61 62 61 60 60 60 60 60 60 59 59 59 58 56 55 55 55 55 56 58 59 61 63 64 66 67 69 71 73 74 75 75 77 78 78 80 82 83 84 85 86 88 90 92 94 95 97 98 99 100 101
14 14 14 14 14 14 14 16 19 21 24 25 27 28 30 32 33 34 36 38 40 42 44 47 49 52 55 57 58 58 59 59 60 60 60 59 59 59 60 59 59 59 58 58 59 59 58 58 58 57 56 55 54 54 54 54 55 56 57 59 60 63 65 66 68 70 71 72 73 75 76 76 78 80 82 83 84 86 88 90 92 94 96 98 99 100 102 103
11 11 11 11 11 12 15 18 21 23 25 26 27 29 30 32 33 34 37 39 41 42 44 46 48 51 53 55 56 56 56 57 58 59 59 58 58 58 58 59 58 58 57 57 57 58 58 57 57 56 56 55 55 54 54 54 55 56 57 58 59 62 63 64 66 69 70 71 73 75 76 76 77 80 81 83 85 87 89 92 94 96 97 99 100 101 102 103
8 9 9 9 11 14 18 20 23 24 25 26 28 30 31 33 34 36 38 40 41 42 44 45 48 50 51 52 53 53 52 53 53 55 56 56 57 57 58 58 58 58 57 56 56 57 58 57 56 56 55 55 55 56 56 56 57 58 59 60 61 63 65 66 68 70 71 73 74 76 77 77 79 81 83 86 88 90 92 94 95 97 98 99 100 101 102 103
7 8 9 11 14 17 20 22 23 25 26 28 30 32 34 36 37 38 39 41 42 44 44 45 48 49 49 49 49 48 47 46 47 48 50 52 53 54 56 57 57 57 57 56 55 56 57 57 57 56 56 56 56 57 57 58 59 61 62 63 64 66 68 69 71 72 73 75 77 80 81 80 81 83 86 88 90 91 93 95 96 97 98 100 101 101 101 101
8 10 12 15 17 19 21 23 24 27 29 32 35 36 37 39 40 40 42 44 45 45 45 45 47 48 47 45 44 43 42 42 41 42 44 46 48 50 52 54 55 56 57 56 55 56 56 57 57 57 57 58 58 58 59 59 60 62 64 66 67 69 70 72 73 75 76 77 79 82 85 84 82 84 87 89 90 92 94 95 97 98 99 99 100 99 99 99
10 12 14 16 18 20 23 25 28 30 33 36 37 38 39 40 42 44 46 47 47 47 46 46 47 48 45 42 40 39 39 39 38 39 40 41 43 45 47 50 52 54 55 55 55 56 56 57 58 58 58 59 60 60 61 62 63 64 66 68 69 71 72 74 75 77 78 79 80 83 86 86 84 85 87 89 91 93 95 96 97 97 97 97 97 98 99 100
12 13 15 17 19 22 25 28 31 33 35 38 39 40 41 43 46 48 49 50 49 49 48 48 48 48 44 40 37 36 36 36 36 37 37 38 39 42 44 47 49 51 53 54 54 55 56 57 57 58 59 60 61 62 63 64 65 66 68 69 71 72 74 75 76 78 79 80 81 84 87 87 86 86 89 91 92 93 93 93 94 94 95 96 98 99 100 102
14 16 17 19 21 25 28 30 33 35 38 40 41 43 45 47 49 51 51 51 51 51 50 49 47 46 43 39 36 35 34 34 34 35 35 36 37 39 41 43 46 48 51 52 54 55 56 57 57 58 59 60 62 63 64 65 66 67 69 70 72 73 74 76 77 78 80 81 82 85 87 88 87 87 89 90 90 90 91 92 93 94 96 97 99 100 101 101
16 18 20 22 25 28 30 32 35 38 40 42 44 46 48 50 52 52 52 52 52 52 51 50 46 43 40 38 37 35 34 33 33 33 34 35 36 36 38 40 43 45 48 50 52 54 56 57 58 59 60 61 62 64 65 66 67 69 70 72 73 74 76 76 78 80 81 82 83 84 85 86 85 84 87 88 89 90 92 93 94 95 97 98 98 98 98 97
19 20 22 25 28 30 32 35 39 41 43 45 46 48 51 52 53 53 53 52 52 52 51 48 44 40 38 37 36 35 34 33 32 32 33 34 35 36 37 38 40 43 45 48 51 53 55 57 59 60 61 63 64 65 66 67 69 70 72 73 74 75 76 76 77 79 79 80 81 82 83 84 84 85 87 89 90 92 93 93 94 94 94 94 93 92 91 91
21 23 24 27 30 33 35 39 41 44 45 47 49 51 53 54 53 53 53 53 53 52 49 45 41 38 36 35 35 34 34 34 33 33 33 34 34 36 37 38 39 41 43 46 48 51 53 55 58 59 61 63 64 65 67 68 69 70 71 73 73 74 74 73 74 76 76 78 79 80 82 84 85 87 89 90 91 91 90 89 88 88 87 88 88 90 91 92
24 25 27 30 33 36 38 41 44 46 47 49 51 53 54 54 54 53 53 53 52 49 45 42 39 37 36 35 34 34 33 34 34 34 34 34 35 36 37 38 39 40 42 44 47 49 52 53 55 57 59 60 61 62 64 65 66 68 69 71 72 72 71 70 71 73 74 76 78 80 82 83 84 85 86 86 86 85 83 83 84 85 86 88 90 92 93 94
26 28 30 33 36 39 41 44 46 48 50 51 53 54 54 54 54 53 53 51 49 45 41 39 37 36 35 34 34 33 33 33 33 34 34 35 35 36 37 38 39 40 41 43 45 47 50 53 54 55 56 57 58 60 61 63 64 65 67 69 70 71 71 70 70 71 72 73 74 77 78 77 78 78 80 81 82 82 82 83 85 87 88 90 92 93 95 97
28 31 34 37 39 42 44 46 48 50 52 53 53 54 54 54 54 53 51 47 43 40 38 36 35 33 33 34 33 33 33 33 33 33 34 35 36 36 37 38 39 40 41 43 44 46 49 53 54 54 55 56 57 59 60 61 62 64 66 68 69 70 71 70 69 69 68 66 67 70 72 73 75 76 78 81 82 83 84 86 87 89 91 93 95 96 98 100
32 35 37 40 42 45 47 48 50 52 52 53 53 53 53 54 53 50 46 41 38 36 34 33 33 32 31 32 33 33 33 34 34 34 35 35 36 37 37 38 39 41 42 43 44 45 47 52 54 54 54 56 56 58 60 61 62 62 64 65 65 65 65 65 65 65 66 65 65 67 71 73 76 77 80 82 83 84 86 89 90 92 94 96 98 99 101 103
35 38 40 43 45 47 48 50 51 52 53 53 53 53 53 52 49 44 40 37 35 33 32 32 32 32 31 31 32 32 33 33 34 35 35 35 36 37 38 39 39 40 42 42 44 44 46 51 55 54 53 55 55 56 57 57 58 58 59 59 60 61 62 64 64 66 67 67 67 68 72 75 78 80 81 83 84 86 88 90 92 94 96 98 100 102 104 106
38 41 43 45 46 47 49 50 51 52 53 53 53 53 51 47 42 38 35 34 33 32 32 32 32 33 33 33 33 33 34 34 35 35 36 37 38 38 39 40 40 41 43 43 44 45 45 48 52 52 50 50 51 51 52 54 55 56 57 59 60 61 63 65 67 68 69 70 69 70 73 77 81 83 84 84 86 88 90 92 95 97 99 101 103 106 108 110
40 42 43 44 46 48 49 51 52 52 53 53 53 50 45 40 36 34 32 32 32 32 33 33 34 35 35 35 36 36 36 37 37 37 38 39 39 40 40 40 41 41 42 42 42 42 41 42 46 48 47 47 48 50 52 55 57 58 59 60 62 63 65 67 69 72 73 73 73 72 72 77 83 85 86 87 89 91 93 96 98 100 102 104 107 109 111 114
41 42 44 46 47 49 50 51 52 52 53 52 49 43 38 34 33 32 32 32 33 33 34 35 35 36 36 37 37 37 37 37 38 38 38 38 38 38 38 37 37 37 38 38 38 39 40 41 44 48 48 48 49 51 54 56 59 60 61 63 64 66 67 69 71 74 76 77 78 77 75 79 85 88 89 91 93 95 97 99 101 103 106 108 110 113 115 117
43 44 47 48 49 49 50 51 52 52 51 47 41 36 33 32 32 32 33 33 34 35 35 35 36 36 36 36 36 36 36 36 36 35 35 35 35 34 35 35 35 36 37 38 39 40 41 43 45 49 51 51 52 54 56 58 61 62 63 65 66 68 70 71 73 76 79 81 83 84 81 83 88 91 92 94 96 98 100 102 105 107 110 112 114 115 117 118
45 47 49 50 50 50 51 51 52 50 45 40 35 33 32 32 32 33 34 34 35 35 35 35 35 35 35 35 35 34 34 33 33 32 32 33 33 34 34 35 36 38 39 41 42 43 44 45 47 50 52 52 54 56 58 60 62 64 66 67 69 71 73 75 77 79 81 83 86 88 87 87 91 93 95 97 99 101 104 106 109 111 113 114 115 115 116 116
47 49 50 50 50 50 51 51 49 44 38 34 32 32 32 33 33 34 35 35 35 35 35 34 34 34 33 33 32 32 32 32 32 32 33 34 34 35 36 38 39 40 41 43 44 45 46 46 48 51 53 55 57 59 61 64 67 68 70 72 73 75 76 78 80 82 83 85 88 90 91 92 94 96 98 100 103 105 108 110 111 112 113 113 113 113 114 113
48 50 50 50 50 51 51 48 43 37 33 31 32 32 33 34 34 35 35 35 35 34 33 32 31 31 30 30 30 31 31 32 33 33 34 35 36 37 38 39 40 41 42 44 46 48 49 50 51 54 56 58 61 63 65 67 70 72 74 75 75 77 78 80 83 85 86 88 90 93 94 95 98 100 102 104 106 108 110 111 111 111 111 111 111 111 112 112
48 49 49 49 50 50 47 41 35 32 31 32 32 33 34 35 35 34 34 33 32 31 30 30 29 29 29 29 30 31 31 32 33 34 34 35 36 37 38 40 42 44 47 49 52 54 56 58 59 61 61 61 63 65 66 67 70 73 75 76 77 78 80 83 85 88 89 91 93 96 98 99 102 105 106 107 108 109 110 110 110 110 109 110 110 110 111 111
47 48 48 49 49 45 40 34 31 31 32 32 33 34 34 34 33 32 31 30 30 29 28 28 28 28 29 30 30 31 31 31 32 34 35 36 38 41 43 46 49 51 53 55 57 59 60 62 64 66 66 65 66 68 68 69 70 73 75 77 79 80 83 86 88 91 93 94 96 100 102 103 106 108 109 109 109 109 109 108 108 108 108 109 109 109 109 110
47 48 48 48 44 38 33 31 31 31 32 33 33 33 33 32 31 30 29 28 27 27 27 28 28 28 29 30 31 33 34 35 37 39 41 43 45 48 50 51 53 54 56 57 59 60 62 64 66 68 69 68 69 70 71 72 73 75 77 79 81 84 86 89 92 94 96 99 100 102 105 106 108 109 108 108 108 107 107 107 107 107 107 107 107 107 108 108
47 48 47 43 37 32 30 30 31 32 33 33 33 32 31 30 29 28 27 26 26 26 27 27 28 29 30 32 35 37 39 42 44 45 47 48 50 51 53 54 55 57 58 59 61 62 64 65 67 69 72 72 71 73 74 75 77 78 80 82 85 87 90 92 95 97 100 103 104 105 106 107 107 107 106 106 106 105 105 105 105 105 104 105 105 106 106 106
47 46 41 35 31 29 30 31 32 32 32 32 31 30 28 27 26 26 25 25 25 26 26 28 30 31 33 36 37 39 41 43 45 47 49 50 52 53 55 56 57 59 60 62 63 64 66 67 68 70 73 74 74 76 77 78 80 82 84 86 88 90 93 95 98 101 103 105 107 107 106 106 105 105 104 104 103 103 102 102 102 103 103 103 103 104 104 105
45 39 34 30 29 30 31 31 32 31 30 30 28 27 26 25 25 24 24 25 25 26 27 29 32 34 36 37 39 40 42 43 45 47 49 52 54 55 57 58 59 61 62 64 66 67 68 69 70 71 74 76 77 78 80 81 83 85 87 89 92 94 96 99 102 104 105 105 105 105 104 103 103 102 101 100 100 99 99 100 100 101 101 101 101 102 103 104
38 32 29 29 30 31 31 31 31 30 28 27 26 25 24 24 23 24 24 25 27 28 30 32 34 36 37 39 41 43 44 46 48 50 51 53 56 57 58 60 61 63 65 67 68 70 70 71 72 73 74 77 78 80 82 85 87 89 91 93 96 98 100 102 104 104 104 103 102 101 100 99 98 97 96 96 96 97 97 97 98 98 99 100 100 100 102 103
31 29 29 30 31 31 31 30 29 27 26 24 23 23 23 23 23 24 25 27 29 31 33 34 36 38 40 42 44 46 48 49 51 53 55 57 59 60 61 63 64 66 68 70 71 72 73 74 74 75 76 78 80 82 85 87 90 93 95 97 99 100 101 102 102 102 102 101 99 97 96 94 93 92 92 93 94 94 95 95 96 96 97 98 98 99 100 101
Wind_Direction
211 214 213 207 209 214 218 223 223 218 215 220 228 233 234 233 232 232 233 236 237 237 240 244 248 249 250 250 251 252 251 251 250 251 253 254 255 256 255 253 254 256 257 259 261 262 263 263 263 263 263 264 264 265 265 265 266 266 267 268 269 270 271 271 271 271 271 272 272 273 274 275 276 275 274 274 274 276 278 279 280 280 281 281 281 281 281 281
212 214 216 212 208 211 215 220 223 221 216 214 219 226 232 235 237 237 236 236 237 238 238 238 241 244 246 248 250 251 251 251 251 251 252 254 255 258 258 257 257 257 258 260 262 263 264 265 265 264 265 265 265 266 266 266 266 267 269 271 273 274 274 274 274 274 274 274 274 274 275 275 276 275 275 275 276 277 279 280 280 281 281 281 281 281 281 281
214 215 217 217 213 211 213 217 222 224 221 217 217 219 224 229 234 238 241 241 241 241 241 241 240 241 243 245 246 247 248 248 249 250 251 253 254 257 258 258 258 259 260 262 264 264 265 265 265 266 266 267 267 267 267 267 268 270 272 274 275 276 276 275 275 275 275 274 274 274 274 275 276 276 276 276 277 278 279 280 280 281 281 281 281 281 281 281
216 216 218 220 218 215 214 215 218 223 225 223 220 220 222 224 227 231 235 238 241 242 243 244 244 244 244 246 247 248 249 250 252 253 254 256 257 259 261 262 262 262 263 265 266 266 266 266 266 267 267 267 268 268 269 270 271 272 273 274 275 275 274 274 273 273 273 273 273 273 274 275 275 276 276 277 278 279 280 280 281 281 281 281 281 282 282 283
218 218 220 222 222 220 218 217 218 220 224 228 227 226 225 225 226 228 230 233 235 237 240 242 244 245 246 248 250 251 253 254 256 257 257 258 258 259 261 263 264 264 265 266 267 267 267 267 268 268 268 268 269 270 271 272 272 272 272 273 273 272 272 271 271 271 271 271 272 273 274 274 275 276 277 278 279 280 281 281 281 281 281 282 283 283 284 284
220 221 222 223 225 224 222 221 222 221 223 226 230 232 231 230 230 230 232 235 236 236 237 239 241 243 244 246 248 249 251 253 255 256 256 256 256 256 257 259 261 263 264 265 266 267 268 268 268 269 270 270 271 272 272 272 272 272 272 272 272 271 271 270 270 271 271 271 272 273 275 276 277 278 279 280 280 281 281 281 281 282 282 283 284 285 285 286
223 223 224 225 227 227 226 226 227 226 226 226 228 232 235 235 235 235 236 238 240 240 240 241 242 244 245 246 248 248 250 251 253 255 255 256 255 255 256 257 258 261 263 264 266 267 268 268 269 269 270 270 271 271 271 271 271 271 271 271 270 270 270 270 271 272 273 274 275 276 277 277 278 279 279 280 280 280 280 281 282 282 283 284 285 285 286 286
227 225 225 226 228 230 229 229 230 231 231 230 230 231 234 236 238 239 240 241 242 244 244 244 245 246 247 249 250 251 252 253 254 256 257 258 259 258 258 258 258 260 262 263 265 266 266 267 267 268 268 268 268 268 268 269 269 269 269 269 270 270 271 272 273 274 275 276 277 277 278 278 278 279 279 279 280 280 280 281 282 283 283 284 284 285 285 286
233 229 228 228 229 231 232 232 233 234 235 235 234 234 235 237 239 240 242 243 244 245 247 247 248 248 249 250 251 252 253 254 255 256 258 259 260 261 261 261 261 261 262 263 264 265 266 266 266 267 267 267 267 267 267 268 268 269 270 271 271 272 273 274 275 276 276 277 277 277 278 278 278 279 279 280 280 280 281 282 283 283 283 284 284 285 285 286
237 234 231 230 230 231 233 234 235 236 238 239 239 240 240 240 241 242 243 244 246 247 248 250 251 251 251 252 253 254 254 255 255 257 258 259 261 262 262 263 263 264 264 265 265 266 267 267 268 268 268 268 268 268 269 269 270 271 272 272 273 274 275 275 276 276 276 276 277 277 278 278 279 279 280 280 281 281 282 283 283 283 284 284 285 285 286 287
240 238 236 234 233 233 233 235 236 237 239 241 242 243 244 244 245 246 247 248 248 249 250 252 253 254 254 255 255 256 257 257 258 259 260 261 262 263 263 264 264 265 265 266 266 267 268 268 268 269 269 269 269 270 270 271 271 272 273 274 274 275 275 275 276 276 276 276 277 277 278 279 279 280 280 281 281 282 282 283 283 284 284 285 285 286 287 287
241 240 239 238 236 236 236 237 238 239 240 242 244 245 246 247 248 249 251 252 253 253 254 254 255 256 257 257 257 258 258 259 260 260 261 262 263 264 264 265 265 266 266 266 267 267 268 268 269 269 270 270 270 271 271 272 272 273 273 274 274 274 275 275 275 276 276 276 277 278 278 279 279 280 280 280 281 282 282 283 283 283 284 285 286 287 287 287
241 241 240 240 239 238 239 239 240 241 242 244 245 247 249 250 252 254 255 256 257 257 258 259 259 260 261 261 261 261 261 261 261 261 262 263 263 264 265 266 266 266 267 267 267 268 268 269 269 270 270 271 271 271 272 272 273 273 273 274 274 274 275 275 275 276 276 276 277 278 278 278 279 280 280 280 281 281 282 282 282 283 284 285 286 286 286 286
242 241 240 241 241 242 242 242 243 244 245 246 248 250 252 254 256 257 259 260 261 261 262 263 263 264 265 265 265 265 265 265 265 264 264 264 265 265 266 267 267 268 268 269 269 269 269 269 270 270 270 271 271 272 272 272 273 273 273 273 273 273 274 274 274 275 275 276 277 277 277 278 278 279 280 280 281 281 281 282 282 283 284 285 285 285 285 285
242 241 241 242 243 244 245 247 248 249 250 251 253 254 256 258 259 260 262 263 264 265 265 266 266 267 268 268 268 269 269 269 268 268 268 268 268 268 268 269 269 270 270 271 271 271 271 271 271 271 271 271 271 271 271 272 272 272 271 271 271 272 272 272 273 273 274 275 276 276 277 277 278 279 279 280 280 281 281 282 283 283 284 284 285 285 285 285
243 242 242 243 245 247 249 251 254 255 257 259 260 260 261 261 262 263 264 265 266 267 268 268 269 269 269 270 270 270 271 271 271 271 270 270 270 270 270 271 271 271 272 272 273 273 273 273 273 273 272 272 271 271 271 271 270 270 269 269 269 270 270 271 272 273 273 274 275 275 276 276 277 278 279 279 280 280 281 281 282 282 283 283 283 283 284 284
243 243 244 246 248 251 254 257 260 262 264 265 265 266 266 267 268 268 268 269 269 270 270 271 271 271 271 271 271 271 272 272 272 272 272 272 272 272 272 272 273 273 273 273 274 274 274 274 274 274 274 273 273 272 270 269 268 268 268 268 268 269 269 270 272 272 273 274 274 275 276 276 276 277 278 278 279 279 280 280 281 281 281 282 282 283 284 285
245 245 247 249 252 255 259 262 265 267 267 268 269 270 271 272 272 272 273 274 274 274 275 275 274 274 273 273 272 272 272 273 273 273 273 273 273 273 273 274 274 274 274 274 274 275 275 276 276 275 275 274 273 272 270 268 267 268 268 268 268 269 269 270 271 273 273 274 274 275 275 275 276 276 277 277 278 278 279 280 280 281 282 282 283 284 285 286
246 247 249 252 256 259 262 264 265 267 269 271 273 274 274 275 276 277 277 278 278 279 279 278 277 277 276 275 274 273 273 272 273 273 273 273 273 274 274 274 274 274 274 274 274 275 276 276 277 277 277 277 275 274 271 270 268 268 268 268 268 269 269 270 271 272 272 273 273 274 274 275 276 277 277 277 278 279 280 280 281 282 282 283 284 285 286 287
247 248 251 253 256 258 260 263 267 270 272 274 275 277 279 280 281 281 281 282 282 282 282 281 280 280 278 277 276 275 274 273 273 273 273 273 273 274 274 274 274 274 274 275 275 276 277 278 278 279 280 280 279 278 276 274 272 271 270 269 269 269 269 270 270 271 272 273 273 274 275 276 277 278 278 279 279 280 280 281 282 283 284 284 285 286 287 287
249 248 248 250 253 257 262 267 271 274 275 277 279 282 284 285 285 285 285 286 286 285 285 284 283 282 281 279 278 277 277 276 275 275 274 274 274 274 274 274 274 274 275 276 277 277 278 279 279 280 281 281 281 280 279 278 276 275 273 272 272 271 271 272 273 273 274 275 276 277 278 279 280 281 281 281 281 281 281 282 283 284 285 285 286 287 287 287
245 246 247 251 257 264 269 272 273 275 278 282 284 287 288 289 290 290 291 291 289 288 287 286 285 284 283 282 281 281 280 280 279 278 276 275 275 274 274 274 274 274 275 276 277 279 279 281 282 282 283 284 284 283 282 281 280 279 277 277 276 276 276 277 277 278 279 280 280 281 281 282 282 282 283 283 283 283 283 283 283 284 285 285 286 286 287 287
245 248 253 259 266 271 271 273 275 279 282 284 287 289 291 293 294 295 296 295 293 292 291 291 289 288 286 285 284 283 281 280 279 278 277 276 275 274 274 274 274 275 275 276 277 278 280 280 282 283 285 286 286 285 284 283 281 280 280 279 279 279 279 279 279 280 280 281 281 281 282 282 282 283 283 283 283 283 283 284 284 284 285 285 286 286 287 287
246 252 259 265 269 270 272 275 279 282 285 288 291 294 296 299 300 300 299 298 298 298 297 296 295 293 291 289 288 286 283 281 278 276 276 275 274 273 273 273 274 274 275 276 276 277 279 280 281 282 283 284 284 284 283 282 281 280 279 279 279 279 279 279 279 279 280 281 281 282 282 282 282 283 283 283 283 283 283 284 284 285 285 286 286 287 287 288
253 260 266 269 271 274 277 281 286 290 296 300 303 304 305 305 304 304 304 305 305 304 302 301 300 297 296 294 292 289 286 283 280 278 276 274 273 272 271 272 272 273 274 275 275 276 277 278 279 280 280 281 282 282 282 282 281 280 279 279 279 279 279 280 280 280 280 281 282 282 282 281 282 282 283 283 283 284 284 285 285 285 286 286 287 287 287 288
265 269 271 274 278 282 286 291 297 303 307 309 309 309 308 308 308 310 311 311 309 307 306 305 304 302 300 299 295 292 290 288 285 282 279 276 274 272 270 270 270 271 272 274 274 275 276 277 278 278 279 279 280 280 281 280 280 279 279 279 279 280 280 280 280 281 281 281 282 282 282 282 282 283 283 284 284 284 284 285 285 285 286 286 287 287 288 288
276 278 281 285 289 292 294 297 303 306 307 308 308 309 309 311 314 315 315 314 312 310 310 310 309 307 305 303 299 296 294 292 289 286 283 280 277 274 271 270 269 269 270 272 273 274 274 276 277 277 278 278 279 279 279 279 279 279 279 280 280 280 281 281 281 282 282 282 283 283 283 283 283 284 284 284 284 284 284 285 285 286 287 287 287 288 288 288
288 290 291 292 291 291 292 296 301 304 306 308 309 311 313 317 318 318 316 315 314 313 313 313 313 311 308 306 302 299 297 295 293 289 286 283 280 277 274 271 270 269 270 271 272 273 274 275 276 277 277 277 278 278 278 279 279 279 279 280 280 281 281 282 282 283 283 284 284 284 285 285 285 285 285 285 285 285 286 286 287 287 287 288 288 288 289 289
293 294 292 288 284 285 290 296 301 305 308 311 313 315 318 320 319 318 317 316 315 315 315 315 314 312 309 308 305 302 300 298 297 294 291 288 284 281 277 275 272 271 271 271 272 273 274 275 276 277 277 277 278 278 279 279 279 280 280 280 281 281 282 283 284 284 285 285 285 286 286 287 287 287 287 287 287 287 287 287 287 288 288 289 289 290 290 290
295 294 291 286 285 288 294 300 305 308 311 314 316 318 320 320 319 318 316 316 316 315 315 315 315 313 310 308 307 305 303 302 300 298 296 292 289 285 281 278 276 274 273 273 273 273 274 275 276 277 278 278 279 279 280 280 281 281 281 282 282 283 284 284 285 286 286 287 287 287 287 288 288 288 288 288 288 288 288 288 289 289 290 290 290 291 291 290
296 294 291 289 291 295 301 305 308 311 314 316 318 319 319 318 318 317 316 316 315 315 315 315 314 312 310 309 308 307 306 304 303 301 299 297 294 290 287 283 280 278 276 275 275 275 276 277 277 278 279 280 280 281 282 282 283 283 284 284 284 285 285 286 287 287 287 288 288 288 288 289 289 289 289 289 289 289 289 290 290 291 291 291 291 291 290 290
298 296 295 295 298 301 305 308 311 314 316 318 319 319 318 317 317 316 316 315 315 315 314 314 314 312 311 310 308 307 307 306 305 304 302 300 298 296 293 291 287 284 282 281 280 279 279 279 279 280 281 282 282 283 284 284 285 285 285 286 286 286 286 287 287 288 288 289 289 290 290 290 291 291 290 290 290 290 290 291 291 291 291 291 291 290 290 290
299 299 299 300 302 305 307 311 314 316 318 318 318 317 317 317 316 316 315 315 315 314 314 314 314 314 313 312 311 310 309 308 308 307 306 304 302 300 298 296 293 291 288 287 286 285 284 284 283 283 283 284 285 285 286 286 287 287 287 288 288 288 288 289 289 289 290 290 291 291 291 291 291 291 291 291 290 291 291 292 292 292 291 291 291 291 291 291
302 302 303 303 305 307 310 313 316 317 317 318 317 317 316 316 316 316 315 315 315 314 315 315 315 316 315 315 315 314 313 311 310 309 308 306 304 303 300 298 297 295 293 292 291 290 289 289 288 288 288 289 289 289 289 289 290 290 290 291 291 291 292 292 292 292 292 292 293 293 293 293 292 292 292 292 292 293 294 294 293 292 292 292 292 291 291 291
303 304 304 305 307 309 311 313 315 316 317 317 317 316 316 316 316 316 315 315 315 315 316 317 317 317 317 317 317 317 316 314 313 311 310 308 306 304 303 301 300 299 297 296 295 294 293 293 293 293 293 294 293 293 293 293 293 293 293 293 294 294 295 296 296 295 294 294 294 294 294 294 293 293 293 293 294 295 295 294 294 293 293 292 292 292 291 291
303 304 305 306 307 309 311 313 315 316 317 317 316 316 316 316 316 316 316 316 317 318 318 319 319 319 320 319 319 319 318 317 316 314 312 311 309 307 306 305 303 302 300 299 298 297 296 295 295 296 296 296 297 296 297 297 297 296 296 296 297 297 297 298 298 297 297 297 296 295 295 295 294 294 294 294 295 296 295 294 294 293 293 293 292 292 292 292
302 304 305 307 308 309 311 314 315 316 316 316 316 316 317 317 317 317 318 319 320 321 321 321 321 321 321 321 320 320 319 318 317 316 314 313 311 310 309 307 306 304 303 302 301 300 299 298 298 299 300 300 300 300 300 300 299 299 299 299 300 300 300 300 300 299 298 298 298 297 297 296 296 295 295 295 296 295 294 294 294 293 293 293 293 293 292 292
304 305 306 308 309 311 313 315 316 316 316 316 317 317 317 318 318 320 321 323 324 324 324 324 323 323 323 323 322 321 320 319 318 317 315 314 313 312 311 309 308 307 306 306 305 304 304 303 302 303 304 304 305 304 304 303 302 302 302 303 302 302 301 301 301 300 299 298 298 298 298 297 296 295 295 295 295 294 294 294 294 294 294 293 293 293 292 292
307 308 310 311 313 314 316 316 316 316 316 317 317 318 318 320 322 324 325 325 326 325 325 325 325 324 324 323 323 322 321 320 319 318 316 315 314 313 312 312 311 310 309 309 309 309 309 308 306 307 308 308 308 308 307 306 305 305 305 304 304 303 303 303 302 301 300 299 298 297 297 297 295 295 296 296 296 296 296 295 295 295 294 293 293 292 292 292
310 312 314 316 316 317 317 317 316 316 317 317 318 320 321 323 325 326 326 326 327 327 326 326 325 325 324 323 323 322 322 321 319 319 318 317 317 316 316 316 315 315 315 315 314 314 314 313 311 310 310 311 310 309 308 307 306 306 306 306 305 304 304 303 302 301 300 300 299 299 300 298 297 298 299 298 298 297 296 296 295 294 294 294 293 293 293 292
312 315 317 318 318 317 317 316 316 317 318 319 320 322 324 326 327 327 327 328 328 327 326 326 325 324 324 323 323 323 323 322 322 322 322 321 322 322 322 322 321 321 320 319 318 318 317 316 314 313 313 313 312 311 309 308 307 306 306 305 304 304 304 303 303 302 302 302 302 302 303 301 299 299 299 298 298 297 296 296 295 295 295 294 294 294 293 293
312 315 317 317 317 317 316 317 317 318 320 321 323 325 326 327 327 328 328 328 327 326 326 326 325 326 326 326 326 327 327 327 327 327 327 327 327 326 326 325 325 324 323 322 321 320 319 318 316 314 313 313 311 310 309 308 307 307 306 306 306 306 306 305 304 304 303 302 302 302 302 300 299 298 298 297 297 297 296 296 296 296 296 295 295 295 294 294
312 314 316 317 316 316 317 318 319 320 322 323 325 326 327 327 328 328 328 328 328 328 328 328 329 329 330 331 331 331 331 331 331 331 331 330 329 330 329 328 327 326 324 323 321 319 318 317 315 314 314 314 313 312 312 311 310 309 309 309 308 308 307 305 304 303 303 302 301 301 301 300 299 299 298 298 298 298 297 297 297 297 297 296 296 296 296 295
312 314 315 316 316 317 318 319 321 322 324 325 326 327 327 328 328 329 329 329 330 330 331 332 333 334 334 334 334 334 334 334 334 334 334 333 331 330 329 327 326 324 323 322 321 320 319 318 317 317 317 317 315 314 313 312 311 309 309 308 308 307 306 305 304 303 303 302 302 301 301 301 300 300 300 300 299 299 299 298 298 298 298 298 297 297 296 296
312 314 315 316 317 318 320 321 323 324 326 327 327 328 328 329 330 330 331 332 332 333 334 334 335 335 335 336 336 336 337 336 335 334 332 331 329 327 327 326 326 326 326 326 325 324 323 322 321 319 319 318 315 313 312 310 309 308 308 307 307 306 305 304 304 303 303 303 303 302 302 302 302 301 301 301 300 300 300 300 300 299 299 298 298 297 297 296
313 315 316 317 318 320 322 323 325 326 327 328 328 329 330 330 331 332 333 333 334 335 336 336 337 337 337 338 337 336 335 334 332 331 330 330 330 330 331 331 331 330 329 328 326 325 323 322 320 318 318 317 315 313 312 311 309 308 308 307 307 306 306 305 305 304 304 304 304 303 303 303 303 302 302 302 302 302 301 301 300 300 299 299 299 298 298 298
315 316 317 318 320 322 324 325 327 327 328 328 329 330 331 332 333 333 334 335 337 338 339 339 340 339 338 337 337 336 335 335 335 335 335 335 334 334 333 332 330 329 327 326 324 323 322 321 319 318 317 317 316 314 313 312 310 309 309 308 308 308 307 307 306 306 306 305 305 304 304 304 304 303 303 303 303 302 302 302 301 301 300 300 300 300 300 300
316 317 319 321 323 325 326 327 328 328 329 329 331 332 333 334 334 335 337 339 341 341 341 340 340 339 339 340 340 341 340 340 339 338 337 335 334 332 330 329 327 326 325 324 323 322 321 320 319 318 316 317 316 315 314 313 312 311 310 310 309 309 308 308 307 307 306 306 305 305 305 305 305 304 304 304 303 303 303 303 302 302 301 301 301 301 301 301
318 320 321 324 325 326 327 328 329 329 330 332 333 334 334 335 336 338 340 342 342 342 341 340 341 342 343 344 343 342 340 338 336 334 333 331 330 329 327 326 325 324 324 323 322 322 321 320 320 318 317 317 317 315 314 314 313 312 311 311 310 309 309 308 307 307 307 307 307 307 306 306 305 305 305 305 305 304 304 303 303 302 302 302 302 302 302 301
320 322 324 325 326 327 328 330 330 331 332 333 334 335 336 338 339 341 342 341 340 340 340 342 343 344 344 343 340 338 336 334 332 330 329 328 328 327 326 325 324 324 323 323 322 322 321 321 320 319 318 317 317 316 315 314 313 313 312 311 311 310 309 309 308 308 308 307 307 307 307 306 306 306 306 306 305 304 304 303 303 303 303 303 303 302 302 301
323 325 326 326 328 329 330 331 331 333 334 334 335 337 339 340 341 340 340 340 341 343 344 345 344 343 341 338 336 334 332 331 330 329 328 328 327 327 326 325 325 324 324 323 323 322 322 321 320 320 318 317 317 316 315 315 314 313 312 312 311 311 310 309 309 308 308 307 307 307 307 307 306 306 306 305 304 304 304 304 304 304 304 303 303 302 301 301
326 326 327 328 329 330 331 332 333 334 335 336 338 340 340 340 339 339 340 342 346 347 346 344 342 340 337 335 333 331 331 330 330 330 329 329 328 328 327 326 326 325 324 324 323 323 322 321 321 320 319 318 317 316 315 315 314 313 313 312 311 311 310 310 309 308 308 308 307 307 307 307 306 306 306 305 306 306 306 305 305 304 303 303 302 302 301 301